Location: Catacaguana
(10.4120°N, 66.7591°W)
Time: 05:06:12
(UTC+00:00)

Envisat - Pass Details

Date: 27 May 2022
Orbit: 764 x 765 km, 98.2° (Epoch: 26 June)

Event Time Altitude Azimuth Distance (km) Brightness Sun altitude
Rises 09:20:17 0° 356° (N) 3,217 6.5 -10.8°
Reaches altitude 10° 09:22:47 10° 346° (NNW) 2,291 5.6 -10.2°
Maximum altitude 09:27:14 32° 284° (WNW) 1,281 3.8 -9.2°
Drops below altitude 10° 09:31:42 10° 222° (SW) 2,292 4.9 -8.2°
Enters shadow 09:32:52 - 216° (SW) 2,710 5.3 -7.9°
